SCP
0 0 0 0 0 0 0 0 0 0 0 0 0 0 0 0 0 0 0 0 0 1 1 1 1 1 1 0 0 0 0 0 0 0 0 0 0 0 0 0 0 0 0 0
0 0 0 0 0 0 0 0 0 0 0 0 0 0 0 0 0 0 0 0 0 1 1 1 1 0 0 0 0 0 0 0 0 0 0 0 0 0 0 0 0 0 0 0
0 0 0 0 0 0 0 0 0 0 0 0 0 0 0 0 0 0 0 0 0 0 0 0 0 0 -0 0 0 0 0 0 0 0 0 0 0 0 0 0 0 0 0 0
0 0 0 0 0 0 0 0 0 0 0 -0 0 0 0 0 0 0 0 0 0 0 0 0 0 -0 -0 -0 0 0 0 0 0 0 0 0 0 0 0 0 0 0 0 0
0 0 0 0 0 0 0 0 0 0 0 0 0 0 0 0 0 0 0 0 0 0 0 0 0 0 -0 -0 0 0 0 0 0 0 0 0 0 0 0 0 0 0 0 0
0 0 0 0 0 0 0 0 0 0 0 0 0 0 0 0 0 0 0 0 0 0 0 0 0 0 0 0 0 0 0 0 0 0 0 0 0 0 0 0 0 0 0 0
0 0 0 0 0 0 0 0 0 0 0 0 0 0 0 0 0 0 0 0 0 0 0 0 -0 -0 0 0 0 0 0 0 0 0 0 0 0 0 0 0 0 0 0 0
0 0 0 0 0 0 0 0 0 0 0 0 0 0 0 0 0 0 0 0 0 0 0 0 -0 -0 0 0 0 0 0 0 0 0 0 0 0 0 0 0 0 0 0 0
0 0 0 0 0 0 0 0 0 0 0 0 0 0 0 0 0 0 0 0 0 0 0 0 -0 -0 -0 0 0 0 0 0 0 0 0 0 0 0 0 0 0 0 0 0
0 0 0 0 0 0 0 0 0 0 0 0 0 0 0 0 0 0 0 0 0 0 -0 0 -0 -0 -0 0 0 0 0 0 0 0 0 0 0 0 0 0 0 0 0 0
0 0 0 0 0 0 0 0 0 0 0 0 0 0 0 0 0 0 0 0 0 0 0 0 -0 -0 0 0 0 0 0 0 0 0 0 0 0 0 0 0 0 0 0 0
0 0 0 0 0 0 0 0 0 0 0 0 0 0 0 0 0 0 0 0 0 0 0 0 0 0 0 0 0 0 0 0 0 0 0 0 0 0 0 0 0 0 0 0
0 0 0 0 0 0 0 0 0 0 0 0 0 0 0 0 0 0 0 0 0 0 -0 0 0 -0 0 0 0 0 0 0 0 0 0 0 0 0 0 0 0 0 0 0
0 0 0 0 0 0 0 0 0 0 0 0 0 0 0 0 0 0 0 -0 0 -0 0 0 -0 -0 0 0 0 -0 -0 0 0 0 0 0 0 0 0 0 0 0 0 0
0 0 0 0 0 0 0 0 0 0 0 0 0 0 0 0 0 0 0 0 0 0 0 -0 -0 0 0 0 0 0 0 0 0 0 0 0 0 0 0 0 0 0 0 0
0 0 0 0 0 0 0 0 0 0 0 0 0 0 0 0 0 0 0 0 -0 -0 -0 -0 -0 0 0 0 0 0 0 -0 0 0 0 0 0 0 0 0 0 0 0 0
0 0 0 0 0 0 0 0 0 0 0 0 0 0 0 0 0 0 0 -0 -0 -0 -0 -0 -0 0 0 0 0 0 -0 0 0 0 0 0 0 0 0 0 0 0 0 0
0 0 0 0 0 0 0 0 0 0 0 0 0 0 0 0 0 0 -0 -0 -0 -0 -0 -0 0 0 0 0 0 -0 -0 -0 0 0 0 0 0 0 0 0 0 0 0 0
0 0 0 0 0 0 0 0 0 0 0 0 0 0 0 0 0 0 0 0 -0 0 0 0 0 0 0 0 0 -0 -0 -0 0 0 0 0 0 0 0 0 0 0 0 0
0 0 0 0 0 0 0 0 0 0 0 0 0 -0 -0 0 0 0 0 0 0 0 0 0 0 0 0 0 -0 -0 -0 -0 -0 0 0 0 0 0 0 0 0 0 0 0
0 0 0 0 0 0 0 0 0 0 0 0 0 0 0 0 0 0 0 0 0 0 0 0 0 0 0 0 0 -0 -0 -0 0 0 0 0 0 0 0 0 0 0 0 0
0 0 0 0 0 0 0 0 0 0 0 0 -0 0 0 0 0 0 0 0 0 0 0 0 0 0 0 0 -0 -0 -0 -0 -0 -0 0 0 0 0 0 0 0 0 0 0
0 0 0 0 0 0 0 0 0 0 0 0 0 0 0 0 0 0 0 0 0 0 0 0 0 0 0 0 -0 -0 -0 0 0 -0 0 0 0 0 0 0 0 0 0 0
-0 0 0 -0 -0 0 0 0 -0 0 0 0 0 0 0 0 0 0 0 0 0 0 0 0 0 0 0 0 -0 -0 0 0 0 -0 0 0 0 0 0 0 0 0 0 0
-0 0 0 -0 -0 0 0 0 -0 -0 -0 0 0 0 0 0 0 0 0 0 0 0 0 0 0 0 0 -0 -0 0 -0 0 0 -0 0 0 0 0 0 0 0 0 0 0
0 0 -0 0 0 0 0 0 0 -0 0 -0 -0 0 0 0 0 0 0 0 0 0 0 0 0 0 0 -0 0 -0 0 0 0 -0 0 0 0 0 0 0 0 0 0 0
0 0 -0 0 -0 0 -0 -0 0 -0 0 0 0 0 -0 0 0 0 0 0 0 0 0 0 0 0 0 0 0 0 -0 0 0 0 -0 0 0 0 0 0 0 0 0 0
Wind_Speed_500mb
5 7 5 6 14 8 13 14 10 8 5 8 11 13 28 40 54 66 72 71 73 78 77 76 69 56 39 35 36 17 24 45 10 2 9 3 3 3 2 1 3 6 11 14
7 6 7 8 18 17 13 1 5 6 6 4 2 15 39 46 53 61 68 74 73 74 75 74 72 63 47 39 26 11 34 5 5 3 2 4 5 5 4 2 7 10 13 20
8 8 11 13 10 5 9 6 4 4 8 13 3 18 26 34 39 47 56 64 71 76 72 68 65 64 54 36 27 19 37 11 11 1 4 3 5 3 2 9 12 13 19 23
6 6 6 10 8 5 18 4 7 4 4 12 16 3 19 29 36 44 51 59 63 71 77 64 60 57 55 47 38 30 30 12 8 1 5 2 0 3 8 12 15 20 19 20
4 4 12 11 6 6 5 5 4 4 6 10 10 5 9 24 29 39 49 60 60 69 74 75 62 52 45 44 38 28 13 4 4 9 2 1 7 8 9 14 19 13 22 30
4 5 8 7 14 33 3 2 2 8 7 7 8 4 8 27 28 38 49 59 62 59 62 71 78 58 44 29 33 23 13 7 9 4 6 4 7 5 12 14 11 20 29 37
3 7 12 11 28 14 2 6 8 14 15 16 6 10 28 35 39 43 53 61 65 55 52 59 69 68 57 34 28 24 21 13 6 8 9 3 7 9 10 11 19 28 35 36
4 4 10 22 12 8 4 9 17 22 27 31 35 40 41 47 55 60 59 52 50 53 54 58 66 66 58 46 27 27 21 12 10 7 8 5 4 6 11 17 25 29 29 30
12 9 5 8 3 5 6 15 28 37 43 43 45 50 47 50 52 56 57 55 49 53 57 66 60 59 63 39 26 24 20 14 13 11 4 3 5 13 17 20 22 22 25 33
3 6 12 19 35 30 20 39 40 56 62 61 66 61 61 61 63 69 70 69 65 58 60 62 55 60 58 38 21 21 27 19 16 12 4 7 12 15 16 14 18 25 32 41
10 21 32 20 35 36 40 59 68 59 52 56 62 66 64 68 72 71 64 61 54 43 49 51 48 59 49 35 30 25 24 18 18 4 5 9 8 8 11 16 23 30 39 40
10 34 28 46 51 60 57 53 48 53 61 56 56 51 51 56 53 54 46 42 45 43 43 37 43 56 48 28 8 16 20 20 9 3 12 8 3 8 13 21 29 39 37 33
29 36 47 49 47 49 60 64 61 66 60 61 57 55 53 53 44 39 38 51 51 39 34 30 41 53 26 7 6 11 15 15 9 7 8 3 3 11 18 25 34 33 28 31
38 41 41 37 50 49 48 47 47 50 51 51 50 49 52 48 44 46 52 41 38 32 20 28 41 39 26 7 7 6 16 10 10 8 4 2 6 15 22 28 26 26 26 30
37 39 46 51 55 57 60 64 67 67 66 65 58 55 49 45 50 45 38 27 24 28 28 33 38 37 20 9 10 16 16 19 19 13 7 4 13 21 24 23 25 27 29 30
48 54 57 62 70 72 71 69 69 73 73 73 65 61 55 49 44 45 39 37 43 48 43 38 36 30 20 15 15 14 11 15 22 9 7 9 18 21 21 22 22 27 27 31
48 54 63 66 67 70 69 68 70 74 74 71 69 62 56 54 50 49 48 51 53 55 48 40 31 20 19 17 13 15 22 23 13 11 11 17 21 20 22 22 24 24 23 29
51 56 57 62 70 69 73 69 67 68 67 66 63 60 58 58 57 58 56 54 50 44 37 26 18 21 26 19 17 22 25 17 12 11 18 21 22 24 22 22 22 22 22 28
61 56 59 63 67 70 72 73 76 72 72 73 69 63 55 51 50 45 37 38 33 26 15 14 24 36 27 28 27 23 16 11 11 15 21 25 26 25 23 21 23 22 22 27
63 57 69 72 71 65 67 70 78 84 82 74 60 56 53 47 40 31 29 26 18 14 12 25 45 42 33 28 12 18 16 13 11 18 23 25 28 25 22 24 24 22 22 25
60 66 66 60 67 64 69 77 82 86 90 76 64 49 38 31 23 24 23 19 16 16 23 40 45 42 27 21 20 23 16 9 14 22 23 26 23 26 26 26 26 22 21 22
57 67 58 60 67 68 70 73 75 71 58 33 22 27 23 19 15 21 18 19 21 30 44 45 41 32 35 31 27 19 12 14 22 24 23 24 29 31 28 29 26 21 20 20
55 50 49 54 56 62 61 62 53 43 35 26 25 21 14 15 16 21 25 38 47 51 50 48 39 38 35 28 21 18 17 22 23 21 23 29 27 29 32 30 25 21 18 18
52 40 46 48 49 52 48 41 38 35 25 22 20 14 14 19 21 26 58 63 58 66 50 42 40 32 23 26 24 21 22 21 21 21 27 29 29 29 32 29 25 21 18 16
52 30 45 43 41 37 31 33 32 38 30 28 24 20 21 22 54 74 70 68 56 52 56 39 29 29 31 26 23 22 20 22 21 22 26 31 34 29 30 31 27 22 19 17
19 34 32 26 30 24 26 34 48 57 58 57 64 71 80 77 76 75 72 67 56 50 42 37 33 30 28 25 24 23 22 20 20 24 27 31 33 31 28 30 29 24 21 19
20 39 27 24 32 28 37 49 60 66 74 82 86 80 83 81 75 69 57 52 45 40 38 35 30 27 26 25 25 22 20 23 24 27 27 29 32 33 29 29 30 26 21 20
Wind_Direction_500mb
275 240 242 251 262 212 208 227 188 260 323 2 350 341 3 20 27 28 28 24 21 18 14 12 12 6 348 333 331 331 330 331 78 83 193 309 313 158 157 243 357 5 357 344
291 314 358 273 257 253 239 216 288 341 94 266 339 37 33 31 31 28 26 22 16 14 13 11 10 7 358 345 320 282 355 120 349 280 210 298 165 168 157 54 14 357 335 329
260 344 331 308 277 334 99 39 220 214 221 233 257 49 26 27 33 30 25 21 17 11 4 3 4 3 356 333 310 273 335 268 305 333 329 277 177 175 75 19 357 334 320 318
244 345 222 246 307 160 120 124 334 292 281 286 296 249 24 27 14 15 12 9 6 0 -0 0 355 357 359 350 327 313 322 248 257 90 325 2 338 325 357 346 330 322 321 327
193 213 293 330 69 82 302 269 302 229 348 338 331 178 253 6 14 11 10 360 351 348 350 353 355 351 355 11 347 352 0 311 280 339 329 286 6 342 331 323 321 325 326 326
121 185 229 241 323 320 336 298 296 136 113 50 43 18 279 343 346 348 347 354 344 341 341 344 344 343 336 354 335 340 337 307 296 252 250 294 347 321 314 325 317 329 324 321
165 236 285 302 319 322 212 254 325 331 336 353 343 284 307 316 321 322 329 330 333 322 327 324 331 335 323 311 315 317 306 283 263 253 245 214 300 296 319 325 327 320 321 322
123 225 279 355 5 21 250 340 336 334 320 314 319 312 318 320 309 308 312 315 322 323 316 318 326 332 316 304 301 302 299 265 251 217 195 266 288 356 349 328 321 323 326 327
179 228 222 26 359 256 319 339 342 336 331 326 313 303 303 304 310 316 315 312 305 308 303 306 321 329 315 300 279 293 268 240 211 218 211 341 350 334 334 335 329 330 334 335
41 277 241 267 297 282 264 320 313 314 312 304 300 300 301 298 301 309 306 308 306 299 306 308 313 324 316 292 274 273 250 229 221 236 183 289 329 340 337 335 338 344 341 336
253 289 313 288 317 312 290 303 302 307 312 306 300 294 294 290 291 295 300 305 310 309 297 302 312 328 314 290 270 245 235 213 224 262 257 283 319 338 353 352 350 348 342 345
255 301 296 300 310 311 311 312 315 315 316 316 315 307 304 302 299 298 307 328 322 311 311 310 317 333 319 293 250 245 226 209 181 179 261 264 341 27 7 355 351 348 352 358
296 306 305 305 309 312 311 305 304 308 304 306 307 303 305 302 303 308 314 324 325 306 302 307 330 334 335 297 218 264 241 170 132 63 226 260 45 13 8 1 356 359 6 12
309 316 314 314 310 314 316 317 313 311 310 306 300 296 298 292 295 299 304 310 315 329 325 327 332 337 318 276 283 236 157 133 63 134 182 241 9 14 5 5 10 16 19 25
340 332 322 320 315 312 311 311 308 308 306 304 300 297 295 291 295 297 295 295 306 321 319 319 321 324 304 254 240 171 160 133 108 150 147 54 20 7 12 24 26 26 31 33
323 320 321 319 316 316 314 309 306 307 307 305 301 297 295 289 284 287 278 283 302 307 306 304 308 305 272 203 185 154 141 128 132 129 78 33 11 18 34 33 24 25 33 39
328 321 324 320 320 319 316 312 306 303 302 299 297 294 293 294 280 267 266 281 290 295 289 285 288 275 229 187 174 143 154 142 144 111 60 22 23 39 40 35 29 31 49 47
329 324 321 318 318 316 314 314 312 308 304 304 300 294 284 282 284 272 271 278 282 282 282 266 252 218 178 160 156 152 152 141 125 61 31 30 43 44 42 34 38 48 68 57
333 326 326 322 321 318 315 310 307 304 304 303 290 279 282 279 281 275 270 269 272 278 266 214 190 167 153 138 135 152 149 135 81 43 42 51 48 46 41 41 46 60 78 63
331 331 333 329 326 320 317 314 316 312 307 301 293 281 276 274 273 257 258 255 247 234 204 178 169 160 151 146 159 163 144 98 49 57 59 55 51 44 47 49 52 65 83 69
336 339 338 338 326 325 325 326 320 312 305 295 277 269 257 263 248 237 227 211 200 170 170 164 152 157 154 148 156 147 116 80 73 67 61 56 52 52 49 51 55 68 88 75
338 342 340 338 334 334 329 329 325 326 334 314 219 212 222 216 198 181 192 182 171 156 153 147 154 158 136 140 139 125 102 90 81 67 60 55 58 50 49 52 54 67 91 80
334 339 339 341 339 335 338 341 345 15 26 73 120 144 162 170 175 177 163 156 149 143 132 125 129 129 134 134 122 108 100 89 74 68 61 63 57 51 48 51 52 65 92 88
345 334 343 348 343 348 355 5 16 46 44 71 90 113 143 148 146 160 140 134 131 131 120 125 128 127 129 119 106 103 92 82 80 71 74 66 62 56 47 50 49 63 88 97
338 344 348 352 354 2 21 26 52 72 89 100 113 120 128 151 134 124 119 119 121 121 125 129 118 117 110 103 104 95 92 91 85 82 78 62 58 59 49 48 46 59 79 89
28 1 0 11 9 26 61 67 72 79 92 102 102 110 114 114 114 116 118 119 127 123 116 116 117 109 102 100 96 95 94 94 90 91 75 60 50 51 56 50 51 58 72 79
36 30 34 50 52 69 86 86 82 83 95 102 100 103 108 109 112 117 119 123 120 117 113 112 109 99 93 93 97 100 102 96 93 83 71 60 52 45 50 52 51 57 67 70
Wind_Speed_850mb
5 7 5 6 14 8 13 14 10 8 5 8 11 13 28 40 54 66 72 71 73 78 77 76 69 56 39 35 36 17 24 45 10 2 9 3 3 3 2 1 3 6 11 14
7 6 7 8 18 17 13 1 5 6 6 4 2 15 39 46 53 61 68 74 73 74 75 74 72 63 47 39 26 11 34 5 5 3 2 4 5 5 4 2 7 10 13 20
8 8 11 13 10 5 9 6 4 4 8 13 3 18 26 34 39 47 56 64 71 76 72 68 65 64 54 36 27 19 37 11 11 1 4 3 5 3 2 9 12 13 19 23
6 6 6 10 8 5 18 4 7 4 4 12 16 3 19 29 36 44 51 59 63 71 77 64 60 57 55 47 38 30 30 12 8 1 5 2 0 3 8 12 15 20 19 20
4 4 12 11 6 6 5 5 4 4 6 10 10 5 9 24 29 39 49 60 60 69 74 75 62 52 45 44 38 28 13 4 4 9 2 1 7 8 9 14 19 13 22 30
4 5 8 7 14 33 3 2 2 8 7 7 8 4 8 27 28 38 49 59 62 59 62 71 78 58 44 29 33 23 13 7 9 4 6 4 7 5 12 14 11 20 29 37
3 7 12 11 28 14 2 6 8 14 15 16 6 10 28 35 39 43 53 61 65 55 52 59 69 68 57 34 28 24 21 13 6 8 9 3 7 9 10 11 19 28 35 36
4 4 10 22 12 8 4 9 17 22 27 31 35 40 41 47 55 60 59 52 50 53 54 58 66 66 58 46 27 27 21 12 10 7 8 5 4 6 11 17 25 29 29 30
12 9 5 8 3 5 6 15 28 37 43 43 45 50 47 50 52 56 57 55 49 53 57 66 60 59 63 39 26 24 20 14 13 11 4 3 5 13 17 20 22 22 25 33
3 6 12 19 35 30 20 39 40 56 62 61 66 61 61 61 63 69 70 69 65 58 60 62 55 60 58 38 21 21 27 19 16 12 4 7 12 15 16 14 18 25 32 41
10 21 32 20 35 36 40 59 68 59 52 56 62 66 64 68 72 71 64 61 54 43 49 51 48 59 49 35 30 25 24 18 18 4 5 9 8 8 11 16 23 30 39 40
10 34 28 46 51 60 57 53 48 53 61 56 56 51 51 56 53 54 46 42 45 43 43 37 43 56 48 28 8 16 20 20 9 3 12 8 3 8 13 21 29 39 37 33
29 36 47 49 47 49 60 64 61 66 60 61 57 55 53 53 44 39 38 51 51 39 34 30 41 53 26 7 6 11 15 15 9 7 8 3 3 11 18 25 34 33 28 31
38 41 41 37 50 49 48 47 47 50 51 51 50 49 52 48 44 46 52 41 38 32 20 28 41 39 26 7 7 6 16 10 10 8 4 2 6 15 22 28 26 26 26 30
37 39 46 51 55 57 60 64 67 67 66 65 58 55 49 45 50 45 38 27 24 28 28 33 38 37 20 9 10 16 16 19 19 13 7 4 13 21 24 23 25 27 29 30
48 54 57 62 70 72 71 69 69 73 73 73 65 61 55 49 44 45 39 37 43 48 43 38 36 30 20 15 15 14 11 15 22 9 7 9 18 21 21 22 22 27 27 31
48 54 63 66 67 70 69 68 70 74 74 71 69 62 56 54 50 49 48 51 53 55 48 40 31 20 19 17 13 15 22 23 13 11 11 17 21 20 22 22 24 24 23 29
51 56 57 62 70 69 73 69 67 68 67 66 63 60 58 58 57 58 56 54 50 44 37 26 18 21 26 19 17 22 25 17 12 11 18 21 22 24 22 22 22 22 22 28
61 56 59 63 67 70 72 73 76 72 72 73 69 63 55 51 50 45 37 38 33 26 15 14 24 36 27 28 27 23 16 11 11 15 21 25 26 25 23 21 23 22 22 27
63 57 69 72 71 65 67 70 78 84 82 74 60 56 53 47 40 31 29 26 18 14 12 25 45 42 33 28 12 18 16 13 11 18 23 25 28 25 22 24 24 22 22 25
60 66 66 60 67 64 69 77 82 86 90 76 64 49 38 31 23 24 23 19 16 16 23 40 45 42 27 21 20 23 16 9 14 22 23 26 23 26 26 26 26 22 21 22
57 67 58 60 67 68 70 73 75 71 58 33 22 27 23 19 15 21 18 19 21 30 44 45 41 32 35 31 27 19 12 14 22 24 23 24 29 31 28 29 26 21 20 20
55 50 49 54 56 62 61 62 53 43 35 26 25 21 14 15 16 21 25 38 47 51 50 48 39 38 35 28 21 18 17 22 23 21 23 29 27 29 32 30 25 21 18 18
52 40 46 48 49 52 48 41 38 35 25 22 20 14 14 19 21 26 58 63 58 66 50 42 40 32 23 26 24 21 22 21 21 21 27 29 29 29 32 29 25 21 18 16
52 30 45 43 41 37 31 33 32 38 30 28 24 20 21 22 54 74 70 68 56 52 56 39 29 29 31 26 23 22 20 22 21 22 26 31 34 29 30 31 27 22 19 17
19 34 32 26 30 24 26 34 48 57 58 57 64 71 80 77 76 75 72 67 56 50 42 37 33 30 28 25 24 23 22 20 20 24 27 31 33 31 28 30 29 24 21 19
20 39 27 24 32 28 37 49 60 66 74 82 86 80 83 81 75 69 57 52 45 40 38 35 30 27 26 25 25 22 20 23 24 27 27 29 32 33 29 29 30 26 21 20
Wind_Direction_850mb
275 240 242 251 262 212 208 227 188 260 323 2 350 341 3 20 27 28 28 24 21 18 14 12 12 6 348 333 331 331 330 331 78 83 193 309 313 158 157 243 357 5 357 344
291 314 358 273 257 253 239 216 288 341 94 266 339 37 33 31 31 28 26 22 16 14 13 11 10 7 358 345 320 282 355 120 349 280 210 298 165 168 157 54 14 357 335 329
260 344 331 308 277 334 99 39 220 214 221 233 257 49 26 27 33 30 25 21 17 11 4 3 4 3 356 333 310 273 335 268 305 333 329 277 177 175 75 19 357 334 320 318
244 345 222 246 307 160 120 124 334 292 281 286 296 249 24 27 14 15 12 9 6 0 -0 0 355 357 359 350 327 313 322 248 257 90 325 2 338 325 357 346 330 322 321 327
193 213 293 330 69 82 302 269 302 229 348 338 331 178 253 6 14 11 10 360 351 348 350 353 355 351 355 11 347 352 0 311 280 339 329 286 6 342 331 323 321 325 326 326
121 185 229 241 323 320 336 298 296 136 113 50 43 18 279 343 346 348 347 354 344 341 341 344 344 343 336 354 335 340 337 307 296 252 250 294 347 321 314 325 317 329 324 321
165 236 285 302 319 322 212 254 325 331 336 353 343 284 307 316 321 322 329 330 333 322 327 324 331 335 323 311 315 317 306 283 263 253 245 214 300 296 319 325 327 320 321 322
123 225 279 355 5 21 250 340 336 334 320 314 319 312 318 320 309 308 312 315 322 323 316 318 326 332 316 304 301 302 299 265 251 217 195 266 288 356 349 328 321 323 326 327
179 228 222 26 359 256 319 339 342 336 331 326 313 303 303 304 310 316 315 312 305 308 303 306 321 329 315 300 279 293 268 240 211 218 211 341 350 334 334 335 329 330 334 335
41 277 241 267 297 282 264 320 313 314 312 304 300 300 301 298 301 309 306 308 306 299 306 308 313 324 316 292 274 273 250 229 221 236 183 289 329 340 337 335 338 344 341 336
253 289 313 288 317 312 290 303 302 307 312 306 300 294 294 290 291 295 300 305 310 309 297 302 312 328 314 290 270 245 235 213 224 262 257 283 319 338 353 352 350 348 342 345
255 301 296 300 310 311 311 312 315 315 316 316 315 307 304 302 299 298 307 328 322 311 311 310 317 333 319 293 250 245 226 209 181 179 261 264 341 27 7 355 351 348 352 358
296 306 305 305 309 312 311 305 304 308 304 306 307 303 305 302 303 308 314 324 325 306 302 307 330 334 335 297 218 264 241 170 132 63 226 260 45 13 8 1 356 359 6 12
309 316 314 314 310 314 316 317 313 311 310 306 300 296 298 292 295 299 304 310 315 329 325 327 332 337 318 276 283 236 157 133 63 134 182 241 9 14 5 5 10 16 19 25
340 332 322 320 315 312 311 311 308 308 306 304 300 297 295 291 295 297 295 295 306 321 319 319 321 324 304 254 240 171 160 133 108 150 147 54 20 7 12 24 26 26 31 33
323 320 321 319 316 316 314 309 306 307 307 305 301 297 295 289 284 287 278 283 302 307 306 304 308 305 272 203 185 154 141 128 132 129 78 33 11 18 34 33 24 25 33 39
328 321 324 320 320 319 316 312 306 303 302 299 297 294 293 294 280 267 266 281 290 295 289 285 288 275 229 187 174 143 154 142 144 111 60 22 23 39 40 35 29 31 49 47
329 324 321 318 318 316 314 314 312 308 304 304 300 294 284 282 284 272 271 278 282 282 282 266 252 218 178 160 156 152 152 141 125 61 31 30 43 44 42 34 38 48 68 57
333 326 326 322 321 318 315 310 307 304 304 303 290 279 282 279 281 275 270 269 272 278 266 214 190 167 153 138 135 152 149 135 81 43 42 51 48 46 41 41 46 60 78 63
331 331 333 329 326 320 317 314 316 312 307 301 293 281 276 274 273 257 258 255 247 234 204 178 169 160 151 146 159 163 144 98 49 57 59 55 51 44 47 49 52 65 83 69
336 339 338 338 326 325 325 326 320 312 305 295 277 269 257 263 248 237 227 211 200 170 170 164 152 157 154 148 156 147 116 80 73 67 61 56 52 52 49 51 55 68 88 75
338 342 340 338 334 334 329 329 325 326 334 314 219 212 222 216 198 181 192 182 171 156 153 147 154 158 136 140 139 125 102 90 81 67 60 55 58 50 49 52 54 67 91 80
334 339 339 341 339 335 338 341 345 15 26 73 120 144 162 170 175 177 163 156 149 143 132 125 129 129 134 134 122 108 100 89 74 68 61 63 57 51 48 51 52 65 92 88
345 334 343 348 343 348 355 5 16 46 44 71 90 113 143 148 146 160 140 134 131 131 120 125 128 127 129 119 106 103 92 82 80 71 74 66 62 56 47 50 49 63 88 97
338 344 348 352 354 2 21 26 52 72 89 100 113 120 128 151 134 124 119 119 121 121 125 129 118 117 110 103 104 95 92 91 85 82 78 62 58 59 49 48 46 59 79 89
28 1 0 11 9 26 61 67 72 79 92 102 102 110 114 114 114 116 118 119 127 123 116 116 117 109 102 100 96 95 94 94 90 91 75 60 50 51 56 50 51 58 72 79
36 30 34 50 52 69 86 86 82 83 95 102 100 103 108 109 112 117 119 123 120 117 113 112 109 99 93 93 97 100 102 96 93 83 71 60 52 45 50 52 51 57 67 70